Temperature
0 0 0 0 -0 -0 -0 -0 -0 -0 -0 -0 -0 -0 -0 -0 -0 -0 -0 -0 -0 -0 -0 -0 -0 -0 -0 -0 0 0 0 -0 -0 -0 0 0 0 0 1 1 1 1 1
-0 -1 -1 -1 -1 -1 -1 -1 -1 -1 -1 -1 -1 -1 -1 -1 -1 -1 -1 -1 -1 -1 -1 -1 -1 -1 -1 -1 -1 -1 -1 -1 -1 -1 -1 -0 -0 -0 -0 -0 -0 -0 -0
-1 -1 -1 -1 -2 -1 -1 -2 -2 -2 -2 -2 -2 -2 -2 -2 -2 -2 -2 -1 -1 -1 -1 -1 -1 -1 -1 -1 -1 -2 -1 -1 -2 -2 -2 -1 -1 -1 -1 -1 -1 -1 -1
-2 -2 -2 -2 -2 -2 -2 -2 -2 -2 -2 -2 -3 -3 -3 -2 -2 -2 -2 -2 -2 -2 -2 -2 -2 -2 -2 -2 -2 -2 -2 -2 -2 -3 -2 -2 -2 -2 -2 -2 -2 -2 -2
-3 -3 -3 -3 -3 -3 -3 -3 -3 -3 -3 -3 -3 -3 -3 -3 -3 -3 -3 -3 -3 -3 -3 -3 -3 -3 -3 -3 -3 -3 -3 -3 -3 -3 -3 -3 -3 -3 -3 -3 -3 -3 -3
-4 -3 -3 -3 -3 -3 -4 -4 -4 -4 -4 -4 -4 -4 -4 -4 -4 -4 -4 -4 -4 -4 -4 -3 -4 -3 -3 -3 -3 -3 -4 -4 -4 -4 -4 -4 -4 -4 -4 -3 -4 -4 -4
-4 -4 -4 -4 -4 -4 -5 -5 -5 -5 -5 -5 -5 -5 -5 -5 -5 -5 -5 -5 -5 -5 -4 -4 -4 -4 -4 -4 -4 -4 -4 -4 -4 -4 -4 -4 -4 -4 -4 -4 -4 -4 -4
-5 -5 -5 -5 -5 -5 -6 -6 -6 -6 -6 -6 -6 -6 -6 -6 -6 -5 -6 -6 -6 -5 -5 -5 -5 -5 -5 -5 -5 -5 -5 -5 -5 -5 -5 -5 -5 -5 -5 -5 -5 -5 -5
-6 -6 -6 -6 -6 -6 -6 -6 -7 -7 -7 -7 -7 -7 -6 -6 -6 -6 -6 -6 -6 -6 -6 -6 -6 -6 -5 -5 -6 -5 -5 -5 -5 -5 -5 -5 -5 -5 -6 -6 -6 -6 -6
-7 -7 -7 -7 -7 -7 -7 -7 -8 -8 -8 -8 -8 -7 -7 -7 -7 -7 -7 -7 -7 -7 -7 -6 -6 -6 -6 -6 -6 -6 -6 -6 -6 -6 -6 -6 -6 -6 -6 -6 -7 -7 -7
-8 -8 -8 -8 -8 -8 -8 -8 -8 -8 -9 -8 -8 -8 -8 -8 -8 -8 -8 -8 -8 -8 -8 -7 -7 -7 -7 -7 -7 -7 -7 -7 -7 -7 -7 -7 -7 -7 -7 -7 -7 -7 -8
-9 -9 -9 -9 -9 -9 -9 -9 -9 -9 -9 -9 -9 -9 -9 -9 -9 -8 -8 -8 -8 -8 -8 -8 -8 -8 -8 -7 -7 -7 -7 -8 -8 -8 -8 -8 -8 -8 -8 -8 -8 -8 -8
-10 -10 -9 -9 -10 -10 -10 -10 -10 -10 -10 -10 -10 -10 -10 -10 -9 -9 -9 -9 -9 -9 -9 -9 -8 -8 -8 -8 -8 -8 -8 -8 -8 -8 -9 -9 -9 -9 -9 -9 -9 -9 -9
-11 -10 -10 -10 -10 -10 -11 -11 -11 -11 -11 -11 -11 -11 -11 -11 -10 -10 -10 -10 -10 -10 -9 -9 -9 -9 -9 -9 -9 -9 -9 -9 -9 -9 -9 -9 -9 -9 -10 -10 -10 -10 -10
-11 -11 -11 -11 -11 -11 -11 -11 -12 -12 -12 -12 -12 -11 -11 -11 -11 -11 -11 -10 -10 -10 -10 -10 -10 -10 -10 -10 -10 -10 -10 -10 -10 -10 -10 -10 -10 -10 -10 -10 -10 -10 -10
-12 -12 -12 -12 -12 -12 -12 -12 -12 -12 -12 -12 -12 -12 -12 -12 -11 -11 -11 -11 -11 -11 -10 -11 -10 -10 -10 -10 -10 -10 -10 -10 -10 -11 -11 -11 -11 -11 -11 -11 -11 -11 -11
-13 -13 -13 -13 -13 -13 -13 -13 -13 -12 -12 -12 -12 -12 -12 -12 -12 -12 -12 -11 -11 -11 -11 -11 -11 -11 -11 -11 -11 -11 -11 -11 -11 -11 -11 -11 -11 -11 -11 -11 -11 -11 -11
-13 -13 -14 -14 -14 -14 -14 -14 -14 -13 -13 -13 -12 -12 -13 -13 -12 -12 -12 -12 -12 -12 -12 -12 -12 -12 -12 -12 -12 -12 -12 -12 -12 -12 -12 -12 -12 -12 -12 -12 -12 -12 -12
-14 -14 -14 -14 -14 -14 -14 -14 -14 -14 -14 -14 -13 -13 -13 -13 -13 -13 -13 -13 -13 -13 -12 -12 -12 -12 -12 -12 -12 -12 -12 -12 -12 -12 -12 -12 -12 -12 -12 -12 -12 -12 -12
-14 -14 -15 -15 -15 -15 -15 -15 -15 -15 -15 -14 -14 -14 -14 -14 -13 -13 -13 -13 -13 -13 -13 -13 -13 -13 -13 -13 -13 -13 -13 -13 -13 -13 -13 -13 -13 -13 -13 -13 -13 -13 -13
-15 -15 -15 -15 -15 -15 -15 -15 -15 -15 -15 -15 -15 -15 -15 -14 -14 -14 -14 -14 -14 -14 -14 -14 -14 -14 -14 -14 -14 -14 -13 -13 -13 -13 -13 -13 -13 -13 -13 -13 -13 -13 -13
-16 -16 -16 -16 -16 -16 -16 -16 -16 -16 -16 -16 -16 -15 -15 -15 -15 -15 -15 -15 -15 -15 -15 -14 -14 -14 -14 -14 -14 -14 -14 -14 -14 -14 -14 -14 -14 -13 -13 -13 -13 -13 -13
-16 -16 -16 -16 -16 -16 -16 -16 -16 -16 -16 -16 -16 -16 -16 -16 -16 -16 -15 -15 -15 -15 -15 -15 -15 -15 -15 -15 -15 -15 -15 -14 -14 -14 -14 -14 -14 -14 -14 -14 -14 -14 -14
-17 -17 -17 -17 -17 -17 -17 -17 -17 -17 -17 -17 -17 -17 -17 -16 -16 -16 -16 -16 -16 -16 -16 -16 -16 -16 -15 -15 -15 -15 -15 -15 -15 -15 -15 -15 -14 -14 -14 -14 -14 -14 -14
-17 -17 -17 -17 -18 -18 -18 -17 -17 -17 -17 -17 -17 -17 -17 -17 -17 -17 -16 -16 -16 -16 -16 -16 -16 -16 -16 -16 -16 -16 -15 -15 -15 -15 -15 -15 -15 -15 -15 -15 -15 -15 -15
-18 -18 -18 -18 -18 -18 -18 -18 -18 -18 -18 -18 -18 -18 -17 -17 -17 -17 -17 -17 -17 -17 -17 -17 -16 -16 -16 -16 -16 -16 -16 -16 -16 -16 -16 -16 -15 -15 -15 -15 -15 -15 -15
Wind_Speed
2 3 3 3 3 3 4 4 4 4 4 4 4 5 5 5 5 5 6 5 6 6 6 7 7 6 5 5 5 5 6 6 7 5 4 4 6 6 6 8 8 8 8
2 3 3 3 3 3 4 4 4 4 4 4 4 5 5 5 6 6 6 6 7 7 7 7 7 6 7 6 6 6 6 6 7 7 5 5 6 7 6 6 7 7 8
2 3 3 3 3 4 4 4 4 4 4 4 4 5 5 5 6 6 6 6 7 7 7 7 7 7 8 7 7 7 6 6 6 6 5 5 5 5 5 6 6 6 8
3 3 3 3 3 4 4 4 4 4 4 5 5 5 5 5 6 6 6 6 7 7 7 7 7 8 9 8 8 8 7 7 7 6 6 5 5 4 5 5 5 6 6
3 3 3 3 3 3 3 4 3 4 4 4 5 5 5 5 5 6 6 7 7 7 7 7 8 9 10 9 7 7 7 7 7 7 6 5 5 4 5 5 6 5 6
3 4 3 3 3 3 3 3 4 4 4 4 5 5 5 5 6 7 7 7 7 7 8 8 8 9 10 11 12 11 10 9 8 7 7 8 8 7 6 5 6 6 6
3 4 3 3 3 3 4 4 4 4 4 5 5 5 6 6 8 9 9 7 8 8 8 8 7 7 10 9 10 11 12 13 13 10 10 10 9 8 7 8 8 8 8
4 4 3 3 3 3 4 4 4 4 4 5 5 6 6 6 8 9 9 8 8 8 8 9 9 9 8 9 8 9 10 11 12 11 10 10 9 9 9 9 8 8 7
4 4 3 3 4 4 4 5 4 4 5 5 5 6 6 7 8 9 9 6 7 8 8 9 10 10 11 12 9 9 9 9 11 14 14 12 12 12 9 6 6 6 7
4 4 4 4 4 5 5 5 4 4 5 5 5 6 6 7 8 10 9 6 7 7 7 8 10 11 12 12 9 8 9 9 8 8 9 9 9 10 11 9 8 8 6
4 4 4 4 4 5 5 4 4 4 5 5 5 6 6 7 8 9 9 6 7 7 7 6 7 11 13 12 11 9 10 8 6 6 7 7 6 6 7 8 8 8 8
3 3 4 4 4 4 4 4 4 4 5 5 5 6 5 6 7 8 9 9 8 7 7 6 7 10 12 11 9 8 9 7 5 6 6 7 6 6 6 7 8 9 9
3 3 3 4 3 4 4 4 4 4 4 4 5 5 5 5 5 8 9 10 10 7 6 8 10 10 9 8 8 9 7 6 5 6 7 7 6 6 5 5 5 6 6
3 4 3 3 3 3 3 4 4 4 5 5 5 5 5 5 5 5 5 6 8 7 6 7 9 9 7 6 6 6 5 5 6 6 6 5 5 5 5 5 5 4 4
3 3 3 3 4 3 3 4 4 5 5 6 5 5 6 6 7 8 7 5 5 5 4 4 4 4 4 4 4 4 4 4 5 5 5 5 5 5 5 5 5 5 6
3 3 3 3 3 3 4 4 6 7 8 9 9 8 7 9 10 10 9 8 8 7 4 4 4 4 4 4 4 4 4 4 4 4 5 5 5 5 5 5 5 6 6
4 4 3 3 4 4 4 4 5 5 7 8 9 10 10 10 10 9 8 7 7 6 4 4 4 4 4 4 4 4 4 4 4 4 5 5 5 5 5 5 5 5 6
4 5 4 4 4 4 4 5 5 5 5 5 6 9 10 9 8 7 7 5 4 3 3 3 3 3 3 4 4 4 4 4 4 4 5 5 5 5 6 6 5 6 6
4 4 4 4 4 4 4 4 4 5 5 5 5 6 8 8 7 6 4 3 3 3 3 3 4 4 4 4 4 4 4 4 5 5 5 5 5 5 6 6 5 7 6
4 6 5 4 4 4 4 4 4 5 5 5 5 5 5 5 4 4 3 3 3 3 4 4 4 4 4 4 4 4 4 4 4 4 5 5 5 5 6 6 5 5 6
4 4 6 5 4 4 4 4 4 5 5 5 5 5 6 5 4 4 4 3 3 4 4 4 4 4 4 4 4 4 5 4 4 4 4 4 4 5 5 5 5 5 5
4 4 4 4 4 4 4 4 4 5 5 6 5 5 7 5 4 4 4 4 4 4 4 4 4 4 4 4 4 4 4 5 5 4 4 4 4 4 5 5 5 4 4
4 4 4 4 4 5 5 4 5 5 5 5 5 5 4 4 4 4 4 4 4 4 4 4 4 4 5 5 5 5 5 5 5 5 5 4 4 4 4 4 5 5 5
4 4 4 4 4 4 4 4 4 5 5 5 5 5 5 5 5 5 4 4 5 5 5 5 5 6 7 7 7 7 7 8 7 7 7 6 5 5 4 4 5 5 5
4 4 4 4 4 4 4 5 5 5 5 5 5 5 5 5 5 5 4 4 5 5 6 6 6 6 7 7 8 8 9 10 10 8 7 6 6 6 5 5 5 5 5
4 4 4 4 4 5 5 5 5 5 5 5 5 5 5 5 5 5 5 4 4 5 6 6 7 7 8 8 9 9 10 10 11 11 8 6 5 5 5 5 6 6 6
Wind_Direction
247 242 241 243 243 244 241 241 244 247 244 240 242 241 239 238 235 232 234 237 239 242 238 238 239 239 241 243 234 228 229 232 244 252 248 247 237 244 248 249 249 249 248
254 248 246 248 245 244 250 250 247 248 246 247 247 246 246 245 241 237 237 237 239 241 241 240 241 238 238 242 235 234 232 231 239 249 246 242 244 241 244 249 251 250 252
254 246 249 251 250 253 254 257 251 246 248 246 245 245 246 248 247 243 240 240 244 245 244 243 242 239 239 240 234 234 235 235 236 244 249 245 249 245 247 250 253 253 255
248 244 250 255 256 259 262 260 257 250 247 249 248 247 249 249 247 246 246 244 245 246 246 246 246 243 241 242 234 232 231 232 232 235 243 245 249 250 247 247 255 255 259
246 244 251 258 259 259 260 260 260 257 251 252 253 253 251 249 243 244 249 249 247 248 247 247 247 247 246 244 238 233 229 230 232 233 237 243 243 241 245 252 258 268 267
247 250 256 257 256 256 257 258 256 258 256 251 250 252 251 249 251 250 251 252 250 248 248 249 250 249 249 249 243 239 235 232 233 235 241 241 244 247 250 247 254 262 267
254 254 254 252 252 255 258 258 254 254 256 250 249 252 255 258 255 254 253 253 251 250 250 250 250 247 248 251 246 244 242 240 237 236 242 243 245 241 240 243 245 249 261
258 258 258 253 254 256 254 256 258 258 257 258 253 254 259 264 261 259 260 256 253 252 251 250 251 250 248 247 244 244 245 243 242 241 243 246 247 246 239 244 251 258 271
261 263 266 259 256 255 252 255 260 260 261 264 263 257 258 265 264 263 265 260 255 255 254 252 251 250 256 251 243 245 249 249 249 251 254 256 254 252 247 243 242 246 259
273 272 273 267 259 257 259 262 263 261 262 267 270 264 260 262 265 266 262 255 256 259 258 254 251 252 258 251 242 243 247 251 252 255 256 256 251 243 234 231 231 235 251
288 282 277 273 268 264 263 263 262 263 267 267 271 270 263 261 264 265 261 256 256 260 262 260 257 257 260 255 248 247 249 255 252 248 249 250 250 245 239 235 236 235 242
293 288 284 281 278 270 265 266 263 261 263 266 269 275 269 265 264 266 264 263 266 263 262 263 265 265 263 256 252 254 256 256 248 244 245 246 245 247 245 245 242 244 249
293 292 292 290 282 273 264 262 262 259 259 265 268 275 278 274 273 271 271 268 268 267 267 268 271 269 260 254 251 254 253 247 241 243 244 248 248 246 249 251 249 249 255
288 292 292 287 285 280 271 262 260 259 260 264 267 272 277 275 274 275 276 276 272 270 273 274 271 264 254 255 255 249 246 246 245 246 250 252 249 242 242 242 243 245 253
285 287 288 284 282 282 278 274 270 266 264 266 268 271 275 273 273 277 277 274 276 275 275 271 267 260 249 249 251 252 250 246 246 247 248 250 248 244 244 239 240 239 246
281 284 284 287 286 282 283 287 280 275 282 280 279 281 282 280 285 282 279 279 278 275 264 258 259 258 254 252 253 253 249 248 249 248 247 243 242 243 245 241 236 236 243
274 280 282 282 282 283 283 284 291 292 285 285 286 286 287 289 284 286 287 286 283 273 257 257 258 258 259 259 256 254 255 256 253 250 250 247 244 242 242 241 239 240 246
276 276 278 279 280 281 282 282 283 288 296 298 295 293 297 295 290 291 291 288 283 274 269 269 272 272 267 264 261 263 264 262 253 249 250 250 247 246 243 244 243 243 248
276 273 276 278 277 278 281 282 284 285 287 292 299 303 304 300 295 297 298 277 270 268 270 272 273 274 271 267 266 267 266 265 265 259 252 250 247 244 246 246 247 247 251
273 278 281 278 275 277 278 279 281 284 286 288 292 300 308 302 292 294 290 284 274 273 273 269 270 270 269 269 269 267 267 266 267 266 263 256 251 246 246 249 248 249 253
276 277 281 280 273 272 274 275 277 280 282 286 288 294 295 290 287 285 283 281 278 278 280 278 276 272 267 264 264 264 265 267 267 267 268 263 255 252 251 252 251 248 252
274 274 273 274 275 270 272 274 276 278 280 281 285 291 295 289 283 281 279 280 281 281 281 278 275 273 271 266 261 260 262 265 265 262 264 263 258 254 251 252 252 251 250
273 274 276 277 278 280 283 280 278 277 279 281 284 287 288 284 283 282 283 285 286 284 282 277 276 279 280 277 273 264 259 259 259 258 261 264 260 255 252 251 248 251 251
270 270 273 277 279 278 280 282 284 285 285 285 284 284 284 283 282 283 285 287 287 286 283 279 276 276 279 281 279 274 269 266 263 257 251 252 257 255 255 252 251 248 247
264 267 268 271 274 277 279 280 282 285 285 285 284 284 285 285 286 286 287 286 286 285 287 286 280 278 277 277 277 275 270 270 270 262 249 242 246 248 248 250 250 251 248
260 263 266 269 270 272 274 277 281 284 285 285 285 286 286 286 286 287 288 287 286 287 289 287 285 284 284 285 281 277 275 275 276 272 263 248 239 242 242 242 245 243 245
Height
1476 1476 1477 1477 1478 1478 1478 1479 1480 1480 1481 1481 1481 1482 1483 1483 1484 1484 1485 1485 1486 1486 1487 1487 1488 1489 1489 1490 1490 1491 1492 1494 1493 1493 1494 1495 1495 1495 1496 1497 1497 1497 1498
1472 1473 1473 1473 1473 1473 1474 1474 1475 1475 1476 1476 1476 1477 1477 1478 1478 1479 1479 1480 1480 1480 1481 1482 1482 1482 1483 1484 1485 1485 1486 1487 1488 1487 1487 1489 1489 1490 1490 1490 1491 1491 1492
1469 1469 1469 1468 1468 1468 1469 1469 1470 1470 1471 1471 1471 1471 1472 1472 1473 1473 1474 1474 1474 1474 1475 1475 1476 1476 1477 1478 1479 1479 1480 1481 1482 1482 1482 1482 1483 1484 1484 1484 1485 1485 1485
1464 1464 1464 1464 1464 1464 1464 1464 1465 1465 1465 1466 1466 1466 1467 1467 1467 1468 1468 1468 1468 1469 1469 1469 1470 1470 1471 1472 1472 1473 1474 1475 1476 1476 1476 1477 1478 1478 1478 1478 1478 1479 1479
1460 1460 1460 1460 1460 1459 1459 1459 1460 1460 1460 1460 1461 1461 1461 1461 1461 1462 1462 1462 1462 1462 1463 1463 1464 1464 1465 1465 1466 1467 1467 1468 1469 1469 1470 1471 1471 1472 1472 1472 1472 1472 1473
1456 1456 1456 1455 1455 1455 1455 1454 1454 1454 1455 1455 1455 1455 1455 1455 1456 1456 1457 1457 1456 1456 1456 1457 1457 1458 1458 1459 1460 1460 1461 1462 1462 1463 1463 1464 1464 1465 1466 1466 1466 1466 1466
1452 1452 1452 1451 1451 1450 1450 1449 1449 1449 1449 1449 1449 1449 1449 1450 1450 1450 1451 1451 1451 1450 1450 1450 1451 1451 1452 1452 1452 1453 1454 1455 1456 1457 1456 1456 1457 1458 1459 1459 1460 1459 1459
1448 1448 1447 1447 1446 1445 1445 1445 1444 1444 1444 1444 1443 1443 1443 1444 1444 1445 1445 1445 1444 1444 1444 1444 1444 1445 1445 1445 1446 1446 1446 1447 1448 1449 1449 1450 1451 1452 1453 1453 1453 1453 1453
1444 1443 1443 1442 1441 1441 1440 1440 1440 1439 1439 1438 1438 1437 1437 1437 1438 1439 1439 1438 1438 1438 1438 1438 1438 1438 1438 1439 1439 1438 1439 1440 1441 1442 1443 1443 1444 1445 1445 1446 1446 1446 1445
1440 1439 1439 1438 1437 1437 1436 1435 1435 1435 1434 1433 1432 1432 1432 1431 1432 1432 1433 1432 1432 1431 1431 1431 1431 1432 1432 1432 1432 1432 1432 1433 1434 1434 1435 1435 1436 1436 1437 1438 1438 1439 1438
1436 1435 1434 1434 1433 1432 1432 1431 1430 1430 1429 1428 1427 1427 1426 1426 1426 1426 1426 1426 1425 1425 1425 1424 1424 1425 1425 1426 1426 1426 1426 1427 1427 1427 1428 1427 1428 1429 1430 1431 1431 1432 1432
1432 1431 1430 1430 1429 1428 1427 1426 1426 1425 1424 1423 1422 1421 1421 1420 1420 1420 1420 1420 1420 1420 1419 1419 1419 1419 1419 1419 1419 1420 1420 1421 1421 1421 1421 1421 1421 1422 1423 1424 1424 1425 1425
1429 1427 1426 1426 1425 1424 1423 1422 1421 1420 1419 1418 1417 1416 1416 1415 1415 1415 1414 1414 1414 1414 1413 1413 1413 1413 1413 1413 1413 1414 1414 1414 1414 1414 1414 1414 1415 1415 1416 1417 1417 1417 1418
1425 1424 1423 1421 1420 1419 1418 1418 1416 1415 1414 1413 1413 1412 1411 1410 1410 1409 1409 1409 1409 1409 1408 1408 1408 1408 1408 1408 1408 1408 1408 1408 1408 1408 1408 1408 1408 1409 1409 1410 1410 1410 1410
1422 1420 1419 1418 1416 1415 1414 1413 1412 1411 1410 1409 1408 1408 1407 1405 1405 1405 1404 1404 1403 1403 1403 1403 1403 1402 1402 1402 1402 1402 1402 1402 1402 1402 1402 1402 1402 1403 1403 1404 1404 1404 1404
1418 1417 1415 1414 1413 1411 1410 1409 1407 1407 1406 1405 1404 1403 1402 1401 1401 1400 1400 1399 1399 1399 1399 1398 1397 1397 1397 1397 1397 1397 1397 1396 1397 1397 1397 1397 1396 1397 1397 1398 1398 1398 1398
1415 1413 1412 1411 1409 1408 1406 1405 1403 1402 1401 1399 1399 1398 1397 1396 1396 1395 1395 1394 1394 1394 1394 1393 1393 1393 1392 1392 1392 1392 1392 1392 1392 1391 1392 1391 1391 1391 1392 1392 1393 1393 1393
1411 1410 1409 1407 1406 1405 1403 1401 1400 1398 1396 1394 1394 1393 1392 1392 1391 1391 1390 1390 1390 1390 1389 1389 1389 1388 1388 1388 1388 1387 1387 1387 1387 1387 1387 1387 1387 1387 1387 1387 1387 1387 1387
1408 1406 1405 1404 1402 1401 1400 1398 1396 1394 1393 1391 1389 1388 1388 1387 1387 1386 1386 1386 1385 1385 1385 1385 1384 1384 1384 1384 1383 1383 1383 1382 1382 1382 1382 1382 1382 1382 1382 1382 1382 1382 1383
1404 1403 1402 1400 1399 1397 1396 1394 1393 1391 1389 1387 1386 1385 1384 1383 1383 1382 1382 1381 1381 1381 1380 1380 1380 1380 1379 1379 1379 1378 1378 1378 1378 1378 1377 1377 1377 1377 1377 1377 1377 1377 1377
1400 1398 1397 1396 1395 1394 1392 1391 1389 1388 1386 1384 1382 1381 1380 1379 1378 1378 1378 1377 1377 1376 1376 1376 1375 1375 1375 1374 1374 1374 1374 1373 1373 1373 1373 1373 1373 1373 1372 1373 1373 1373 1373
1396 1395 1393 1392 1391 1390 1388 1387 1385 1384 1382 1381 1379 1378 1377 1376 1375 1374 1373 1373 1372 1372 1372 1371 1371 1371 1370 1370 1369 1369 1369 1369 1369 1368 1368 1368 1368 1368 1368 1368 1368 1368 1368
1392 1391 1389 1388 1387 1386 1384 1383 1381 1380 1378 1377 1375 1374 1373 1372 1371 1370 1369 1369 1368 1368 1367 1367 1366 1366 1366 1366 1365 1365 1364 1364 1364 1364 1364 1364 1364 1364 1364 1364 1364 1364 1364
1389 1387 1386 1384 1383 1382 1380 1379 1377 1376 1375 1373 1372 1371 1369 1368 1367 1366 1365 1364 1364 1363 1363 1362 1362 1362 1361 1361 1361 1360 1360 1360 1360 1360 1360 1360 1360 1360 1360 1360 1360 1360 1360
1385 1383 1382 1381 1379 1378 1376 1375 1374 1372 1371 1370 1369 1367 1366 1365 1364 1362 1362 1361 1360 1359 1359 1358 1358 1357 1357 1356 1356 1356 1356 1356 1356 1356 1356 1356 1356 1356 1356 1356 1356 1357 1356
1381 1380 1378 1377 1375 1374 1373 1372 1370 1369 1368 1367 1365 1364 1363 1361 1360 1359 1358 1357 1356 1355 1354 1354 1354 1353 1352 1352 1352 1352 1352 1352 1352 1352 1352 1352 1352 1352 1352 1352 1352 1352 1352